Skip Page Navigation
NASA JPL Caltech
NASA Logo - Jet Propulsion Laboratory + View the NASA Portal
+ Near-Earth Object (NEO) Program
Search JPL
JPL Home Earth Solar System Stars & Galaxies Technology
JPL Solar System Dynamics
BODIES ORBITS EPHEMERIDES TOOLS PHYSICAL DATA DISCOVERY FAQ SITE MAP
JPL Small-Body Database Browser
Search: [ help ]  
6117 (1985 CZ1)
Classification: Main-belt Asteroid          SPK-ID: 2006117
Ephemeris | Orbit Diagram | Orbital Elements | Physical Parameters | Discovery Circumstances | Close-Approach Data ]

[ show orbit diagram ]
Orbital Elements at Epoch 2457000.5 (2014-Dec-09.0) TDB
Reference: JPL 10 (heliocentric ecliptic J2000)
 Element Value Uncertainty (1-sigma)   Units 
e .06717474069554592 5.103e-08  
a 2.342985749924671 1.2596e-08 AU
q 2.185596289720122 1.1895e-07 AU
i 6.125971393537932 5.3902e-06 deg
node 305.5785225676012 6.8778e-05 deg
peri 144.0249819569241 9.4648e-05 deg
M 165.8134036323572 6.2914e-05 deg
tp 2456397.149008109201
(2013-Apr-14.64900811)
0.00022889 JED
period 1309.944505827039
3.59
1.0563e-05
2.892e-08
d
yr
n .2748208022543004 2.2161e-09 deg/d
Q 2.50037521012922 1.3442e-08 AU
  Orbit Determination Parameters
   # obs. used (total)      1092  
   data-arc span      21825 days (59.75 yr)  
   first obs. used      1954-07-31  
   last obs. used      2014-05-02  
   planetary ephem.      DE431  
   SB-pert. ephem.      SB431-BIG16  
   condition code      0  
   fit RMS      .47959  
   data source      ORB  
   producer      Otto Matic  
   solution date      2014-Jun-16 13:33:34  

Additional Information
 Earth MOID = 1.20524 AU 
 T_jup = 3.552 
[ show covariance matrix ]

Ephemeris | Orbit Diagram | Orbital Elements | Physical Parameters | Discovery Circumstances | Close-Approach Data ]

Physical Parameter Table
Parameter Symbol Value Units Sigma Reference Notes
absolute magnitude H 13.3 mag n/a MPO296185  

6117 (1985 CZ1)          Discovered 1985-Feb-12 by Debehogne, H. at La Silla (809)
Reference: DISCOVERY.DBLast Updated: 2003-08-29

[ show close-approach data ]
Alternate Designations
 1985 CZ1 = 1979 OO5 
Ephemeris | Orbit Diagram | Orbital Elements | Physical Parameters | Discovery Circumstances | Close-Approach Data ]
ABOUT SSD CREDITS/AWARDS PRIVACY/COPYRIGHT GLOSSARY LINKS
FirstGov 2014-Aug-20 22:23 UT
(server date/time)  
NASA Home Page
Site Manager:   Donald K. Yeomans
Webmaster  Alan B. Chamberlin